#timestamp,LO_Frequency,Hit 
1500721215.5,286046994.2,N
1500721235.4,286046993.7,N
1500721255.2,286046993.8,N
1500721275.0,286046993.7,N
1500721275.9,286046993.7,N
1500721295.8,286046993.7,N
1500721315.6,286046996.0,N
1500721335.5,286046994.0,N
1500721355.3,286046993.6,N
1500721375.1,286046993.8,N
1500721395.9,286046996.1,N
1500721415.7,286046995.9,N
1500721435.5,286046996.3,N
1500721455.4,286046995.2,N
1500721475.2,286046993.3,N
1500721495.1,286046993.5,N
1500721496.0,286046993.5,N
1500721515.8,286046991.7,N
1500721535.6,286046994.4,N
1500721555.5,286046994.2,N
1500721575.3,286046991.9,N
1500721595.2,286046992.0,N
1500721615.9,286046992.5,N
1500721635.7,286046994.2,N
1500721655.6,286046993.3,N
1500721675.4,286046993.6,N
1500721695.2,286046995.5,N
1500721715.1,286046993.4,N
1500721716.0,286046993.4,N
1500721735.8,286046993.4,N
1500721755.7,286046996.0,N
1500721775.5,286046995.6,N
1500721795.3,286046996.1,N
1500721815.2,286046995.9,N
1500721835.0,286046993.6,N
1500721835.9,286046993.6,N
1500721855.8,286046993.8,N
1500721875.6,286046993.7,N
1500721895.4,286046993.8,N
1500721915.3,286046993.8,N
1500721935.1,286046994.4,N
1500721955.9,286046992.1,N
1500721975.7,286046994.0,N
1500721995.5,286046994.6,N
1500722015.4,286046994.0,N
1500722035.2,286046993.7,N
1500722055.0,286046993.7,N
1500722056.0,286046993.7,N
1500722075.8,286046995.5,N
1500722095.6,286046995.8,N
1500722115.5,286046996.2,N
1500722135.3,286046993.4,N
1500722155.1,286046995.5,N
1500722175.9,286046995.2,N
1500722195.7,286046996.2,N
1500722215.6,286046995.7,N
1500722235.4,286047011.9,N
1500722255.2,286046995.3,N
1500722275.1,286046994.9,N
1500722276.0,286046994.9,N
1500722295.8,286046994.9,N
1500722315.6,286046997.9,N
1500722335.5,286046997.6,N
1500722355.3,286046997.9,N
1500722375.2,286046995.3,N
1500722395.0,286046997.5,N
1500722395.9,286046997.5,N
1500722415.7,286046997.6,N
1500722435.6,286046998.0,N
1500722455.4,286046997.1,N
1500722475.3,286046994.9,N
1500722495.1,286046997.1,N
1500722496.0,286046997.1,N
1500722515.8,286046995.0,N
1500722535.7,286046997.6,N
1500722555.5,286046995.8,N
1500722575.4,286046995.4,N
1500722595.2,286046995.4,N
1500722615.0,286046995.3,N
1500722615.9,286046995.3,N
1500722635.8,286046997.4,N
1500722655.6,286046997.7,N
1500722675.5,286046997.6,N
1500722695.3,286046995.5,N
1500722715.1,286046995.6,N
1500722735.9,286046996.3,N
1500722755.7,286046996.3,N
1500722775.6,286046996.3,N
1500722795.4,286046996.1,N
1500722815.2,286046995.7,N
1500722835.1,286046995.2,N
1500722836.0,286046995.2,N
1500722855.8,286046997.4,N
1500722875.6,286046997.8,N
1500722895.5,286046994.9,N
1500722915.3,286046997.5,N
1500722935.2,286046996.7,N
1500722955.9,286046996.8,N
1500722975.7,286046997.3,N
1500722995.6,286046996.7,N
1500723015.4,286046996.7,N
1500723035.3,286046997.0,N
1500723055.1,286046996.7,N
1500723056.0,286046996.7,N
1500723075.8,286046997.2,N
1500723095.7,286046996.8,N
1500723115.5,286046997.1,N
1500723135.3,286046997.1,N
1500723155.2,286046996.9,N
1500723175.0,286046997.6,N
1500723175.9,286046997.6,N
1500723195.8,286046997.6,N
1500723215.6,286046997.4,N
1500723235.4,286046996.7,N
1500723255.3,286046998.4,N
1500723275.1,286046999.3,N
1500723295.9,286046998.1,N
1500723315.7,286046996.6,N
1500723335.5,286046997.1,N
1500723355.4,286046999.4,N
1500723375.2,286047001.2,N
1500723395.1,286046998.3,N
1500723396.0,286046998.3,N
1500723415.8,286046998.3,N
1500723435.6,286046998.7,N
1500723455.5,286046998.1,N
1500723475.3,286046998.2,N
1500723495.1,286046998.9,N
1500723515.9,286046998.6,N
1500723535.7,286046998.7,N
1500723555.6,286046998.3,N
1500723575.4,286046998.9,N
1500723595.2,286046998.4,N
1500723615.1,286046999.2,N
1500723616.0,286046999.2,N
1500723635.8,286046999.0,N
1500723655.7,286047001.0,N
1500723675.5,286046998.5,N
1500723695.3,286046998.4,N
1500723715.2,286046998.2,N
1500723735.0,286046998.2,N
1500723735.9,286046998.2,N
1500723755.7,286047000.8,N
1500723775.6,286047001.1,N
1500723795.4,286046998.7,N
1500723815.3,286047001.0,N
1500723835.1,286047001.2,N
1500723836.0,286047001.2,N
1500723855.8,286046998.1,N
1500723875.7,286047000.9,N
1500723895.5,286047001.0,N
1500723915.4,286047001.0,N
1500723935.2,286047000.3,N
1500723955.0,286047000.8,N
1500723955.9,286047000.8,N
1500723975.8,286046998.7,N
1500723995.6,286047001.2,N
1500724015.4,286046998.7,N
1500724035.3,286046999.2,N
1500724055.1,286046996.9,N
1500724075.9,286046999.1,N
1500724095.7,286046999.1,N
1500724115.5,286046998.1,N
1500724135.4,286046998.5,N
1500724155.2,286046998.2,N
1500724175.1,286047001.2,N
1500724176.0,286047001.2,N
1500724195.8,286047002.8,N
1500724215.6,286047000.4,N
1500724235.5,286047000.5,N
1500724255.3,286047000.5,N
1500724275.2,286046999.9,N
1500724295.9,286047000.4,N
1500724315.7,286047000.3,N
1500724335.6,286046999.9,N
1500724355.4,286047000.5,N
1500724375.3,286047000.3,N
1500724395.1,286047000.6,N
1500724396.0,286047000.6,N
1500724415.8,286046998.6,N
1500724435.7,286046998.4,N
1500724455.5,286046998.4,N
1500724475.4,286046998.2,N
1500724495.2,286046998.3,N
1500724515.0,286047000.8,N
1500724515.9,286047000.8,N
1500724535.8,286047001.0,N
1500724555.6,286047000.0,N
1500724575.4,286046999.8,N
1500724595.3,286047002.7,N
1500724615.1,286046999.9,N
1500724635.9,286047000.7,N
1500724655.7,286047001.1,N
1500724675.5,286046999.9,N
1500724695.4,286047002.4,N
1500724715.2,286047000.4,N
1500724735.0,286047002.3,N
1500724736.0,286047002.3,N
1500724755.8,286047001.6,N
1500724775.6,286047001.6,N
1500724795.5,286047000.1,N
